Location: Tamazert
(32.6352°N, 5.2072°W)
Time: 16:47:37
(UTC+00:00)

Vanguard 3 - Pass Details

Date: 04 October 2022
Orbit: 509 x 3255 km, 33.3° (Epoch: 08 December)

Event Time Altitude Azimuth Distance (km) Brightness Sun altitude
Rises 16:53:56 0° 261° (W) 5,382 13.3 13.3°
Reaches altitude 10° 17:00:34 10° 236° (SW) 5,014 12.8 11.9°
Maximum altitude 17:05:52 13° 215° (SW) 5,199 12.1 10.8°
Drops below altitude 10° 17:11:54 10° 194° (SSW) 5,794 11.9 9.6°
Sets 17:21:35 0° 171° (S) 7,156 12.0 7.6°
